JBU1607 TJSJ-MDST

Flight info

Callsign JBU1607
Flight time N/A
Altitude 34000
Route SJU RTE2 BOCCA DCT MEEGL M348 KATOK UM348 PIXAR DCT PETRI PETRI2P
Aircraft A20N/M-SDE2E3FGHIRWXY/LB1

Departure

Time N/A
Airport Luis Munoz Marin International Airport (TJSJ)

Arrival

Time 2026-05-07 20:01
Airport Cibao International Airport (MDST)
Time Latitude Longitude Altitude Speed Heading
2026-05-07 19:29 18.99811 -68.44742 34028 ft 458 kts 298°
2026-05-07 19:29 19.01351 -68.48942 34029 ft 458 kts 298°
2026-05-07 19:30 19.03252 -68.54132 34030 ft 457 kts 298°
2026-05-07 19:30 19.05932 -68.61454 34023 ft 457 kts 298°
2026-05-07 19:31 19.07845 -68.66688 34028 ft 457 kts 298°
2026-05-07 19:31 19.10136 -68.72961 34025 ft 457 kts 298°
2026-05-07 19:32 19.12411 -68.79197 33714 ft 457 kts 298°
2026-05-07 19:32 19.13517 -68.82361 33327 ft 458 kts 294°
2026-05-07 19:32 19.14362 -68.85640 32941 ft 462 kts 288°
2026-05-07 19:33 19.14912 -68.88972 32561 ft 465 kts 284°
2026-05-07 19:33 19.15403 -68.92366 32202 ft 464 kts 284°
2026-05-07 19:33 19.15898 -68.95705 31836 ft 464 kts 284°
2026-05-07 19:33 19.16404 -68.99108 31473 ft 464 kts 284°
2026-05-07 19:34 19.16900 -69.02443 31121 ft 464 kts 283°
2026-05-07 19:34 19.17402 -69.05832 30765 ft 464 kts 283°
2026-05-07 19:34 19.17901 -69.09221 30411 ft 462 kts 283°
2026-05-07 19:34 19.18391 -69.12552 30064 ft 459 kts 283°
2026-05-07 19:35 19.18874 -69.15852 29660 ft 456 kts 282°
2026-05-07 19:35 19.19362 -69.19188 29256 ft 455 kts 282°
2026-05-07 19:35 19.19847 -69.22502 28860 ft 454 kts 282°
2026-05-07 19:35 19.20325 -69.25774 28469 ft 452 kts 282°
2026-05-07 19:36 19.20808 -69.29081 28081 ft 451 kts 282°
2026-05-07 19:36 19.21279 -69.32314 27699 ft 448 kts 282°
2026-05-07 19:36 19.21754 -69.35575 27325 ft 446 kts 282°
2026-05-07 19:36 19.22225 -69.38813 26965 ft 444 kts 282°
2026-05-07 19:37 19.22688 -69.42008 26599 ft 443 kts 282°
2026-05-07 19:37 19.23155 -69.45229 26246 ft 441 kts 282°
2026-05-07 19:37 19.23618 -69.48428 25894 ft 438 kts 282°
2026-05-07 19:37 19.24081 -69.51623 25545 ft 436 kts 282°
2026-05-07 19:38 19.24535 -69.54768 25207 ft 435 kts 281°
2026-05-07 19:38 19.24992 -69.57933 24861 ft 433 kts 281°
2026-05-07 19:38 19.25445 -69.61080 24554 ft 431 kts 281°
2026-05-07 19:38 19.25895 -69.64212 24245 ft 428 kts 281°
2026-05-07 19:39 19.26342 -69.67326 23958 ft 427 kts 281°
2026-05-07 19:39 19.26784 -69.70397 23649 ft 427 kts 280°
2026-05-07 19:39 19.27094 -69.73529 23226 ft 425 kts 277°
2026-05-07 19:39 19.27373 -69.76636 22790 ft 420 kts 278°
2026-05-07 19:40 19.27651 -69.79671 22364 ft 416 kts 278°
2026-05-07 19:40 19.27930 -69.82723 21930 ft 413 kts 278°
2026-05-07 19:40 19.28207 -69.85747 21510 ft 410 kts 277°
2026-05-07 19:40 19.28480 -69.88745 21097 ft 407 kts 277°
2026-05-07 19:41 19.28749 -69.91701 20688 ft 404 kts 277°
2026-05-07 19:41 19.29017 -69.94664 20279 ft 402 kts 277°
2026-05-07 19:41 19.29280 -69.97592 19881 ft 399 kts 277°
2026-05-07 19:41 19.29540 -70.00471 19493 ft 396 kts 277°
2026-05-07 19:42 19.29800 -70.03375 19106 ft 393 kts 277°
2026-05-07 19:42 19.30058 -70.06248 18722 ft 390 kts 277°
2026-05-07 19:42 19.30314 -70.09100 18340 ft 387 kts 277°
2026-05-07 19:42 19.30568 -70.11945 17897 ft 384 kts 277°
2026-05-07 19:43 19.30816 -70.14715 17477 ft 380 kts 277°
2026-05-07 19:43 19.31065 -70.17507 17042 ft 378 kts 277°
2026-05-07 19:43 19.31312 -70.20275 16621 ft 374 kts 277°
2026-05-07 19:43 19.31554 -70.22986 16215 ft 372 kts 277°
2026-05-07 19:44 19.31795 -70.25708 15799 ft 369 kts 277°
2026-05-07 19:44 19.32034 -70.28403 15399 ft 365 kts 277°
2026-05-07 19:44 19.32271 -70.31070 14996 ft 361 kts 277°
2026-05-07 19:44 19.32503 -70.33680 14606 ft 359 kts 277°
2026-05-07 19:45 19.32736 -70.36303 14213 ft 355 kts 277°
2026-05-07 19:45 19.32953 -70.38917 13829 ft 355 kts 275°
2026-05-07 19:45 19.33095 -70.41492 13405 ft 352 kts 274°
2026-05-07 19:45 19.33207 -70.44072 12961 ft 348 kts 274°
2026-05-07 19:46 19.33318 -70.46622 12588 ft 344 kts 274°
2026-05-07 19:46 19.33437 -70.49147 12294 ft 343 kts 274°
2026-05-07 19:46 19.33560 -70.51689 11968 ft 346 kts 274°
2026-05-07 19:46 19.33684 -70.54189 11630 ft 341 kts 274°
2026-05-07 19:47 19.33810 -70.56671 11259 ft 331 kts 274°
2026-05-07 19:47 19.33930 -70.59049 10904 ft 318 kts 274°
2026-05-07 19:47 19.34056 -70.61354 10551 ft 307 kts 276°
2026-05-07 19:47 19.34410 -70.63547 10196 ft 295 kts 284°
2026-05-07 19:48 19.34878 -70.65616 9858 ft 287 kts 283°
2026-05-07 19:48 19.35335 -70.67692 9473 ft 289 kts 283°
2026-05-07 19:48 19.35786 -70.69751 9102 ft 289 kts 283°
2026-05-07 19:48 19.36232 -70.71801 8728 ft 281 kts 283°
2026-05-07 19:49 19.36666 -70.73797 8357 ft 273 kts 283°
2026-05-07 19:49 19.37087 -70.75732 7994 ft 266 kts 283°
2026-05-07 19:49 19.37497 -70.77616 7647 ft 258 kts 283°
2026-05-07 19:49 19.37893 -70.79434 7313 ft 251 kts 283°
2026-05-07 19:50 19.38278 -70.81204 6986 ft 245 kts 283°
2026-05-07 19:50 19.38660 -70.82951 6659 ft 240 kts 283°
2026-05-07 19:50 19.39031 -70.84656 6330 ft 235 kts 283°
2026-05-07 19:50 19.39395 -70.86331 5984 ft 230 kts 283°
2026-05-07 19:51 19.39747 -70.87953 5652 ft 227 kts 282°
2026-05-07 19:51 19.40090 -70.89584 5316 ft 225 kts 282°
2026-05-07 19:51 19.40431 -70.91205 4975 ft 223 kts 282°
2026-05-07 19:51 19.40765 -70.92795 4647 ft 222 kts 282°
2026-05-07 19:52 19.41098 -70.94387 4304 ft 219 kts 282°
2026-05-07 19:52 19.41710 -70.95818 4064 ft 213 kts 314°
2026-05-07 19:52 19.42918 -70.96586 4009 ft 194 kts 352°
2026-05-07 19:52 19.44232 -70.96424 4026 ft 197 kts 26°
2026-05-07 19:53 19.45312 -70.95585 4010 ft 193 kts 52°
2026-05-07 19:53 19.45933 -70.94359 4013 ft 189 kts 77°
2026-05-07 19:53 19.46254 -70.93002 4013 ft 190 kts 76°
2026-05-07 19:53 19.46611 -70.91660 4009 ft 190 kts 75°
2026-05-07 19:54 19.46921 -70.90316 3992 ft 183 kts 86°
2026-05-07 19:54 19.46849 -70.88981 4031 ft 188 kts 103°
2026-05-07 19:54 19.46550 -70.87625 4005 ft 189 kts 103°
2026-05-07 19:54 19.46262 -70.86291 4019 ft 186 kts 103°
2026-05-07 19:55 19.45976 -70.84937 4003 ft 188 kts 103°
2026-05-07 19:55 19.45696 -70.83603 4011 ft 183 kts 103°
2026-05-07 19:55 19.45428 -70.82317 4079 ft 173 kts 103°
2026-05-07 19:55 19.45157 -70.81051 4090 ft 182 kts 103°
2026-05-07 19:56 19.44879 -70.79759 3982 ft 176 kts 104°
2026-05-07 19:56 19.44606 -70.78514 3796 ft 171 kts 104°
2026-05-07 19:56 19.44322 -70.77291 3536 ft 171 kts 104°
2026-05-07 19:56 19.44043 -70.76114 3280 ft 164 kts 103°
2026-05-07 19:57 19.43784 -70.74951 3016 ft 156 kts 102°
2026-05-07 19:57 19.43557 -70.73812 2931 ft 157 kts 102°
2026-05-07 19:57 19.43311 -70.72674 2826 ft 157 kts 104°
2026-05-07 19:57 19.43053 -70.71573 2636 ft 150 kts 104°
2026-05-07 19:58 19.42805 -70.70538 2408 ft 145 kts 102°
2026-05-07 19:58 19.42591 -70.69503 2174 ft 141 kts 102°
2026-05-07 19:58 19.42400 -70.68488 1933 ft 138 kts 102°
2026-05-07 19:58 19.42172 -70.67527 1711 ft 132 kts 104°
2026-05-07 19:59 19.41949 -70.66589 1496 ft 131 kts 103°
2026-05-07 19:59 19.41747 -70.65608 1295 ft 141 kts 105°
2026-05-07 19:59 19.41505 -70.64581 1163 ft 140 kts 103°
2026-05-07 19:59 19.41302 -70.63586 984 ft 140 kts 104°
2026-05-07 20:00 19.41077 -70.62605 780 ft 132 kts 102°
2026-05-07 20:00 19.40880 -70.61677 611 ft 126 kts 104°
2026-05-07 20:00 19.40692 -70.60837 573 ft 106 kts 103°
2026-05-07 20:00 19.40557 -70.60226 574 ft 59 kts 102°
2026-05-07 20:01 19.40476 -70.59976 565 ft 22 kts 171°
2026-05-07 20:01 19.40386 -70.59993 571 ft 0 kts 191°
2026-05-07 20:01 19.40377 -70.59995 574 ft 3 kts 191°
2026-05-07 20:01 19.40344 -70.60009 570 ft 6 kts 235°
2026-05-07 20:02 19.40338 -70.60062 571 ft 9 kts 277°
2026-05-07 20:02 19.40304 -70.60119 569 ft 9 kts 216°
2026-05-07 20:02 19.40286 -70.60135 571 ft 0 kts 218°